NORTHERN QUEENS  -  Heat Advisory Heat Advisory     Flash Flood Watch Flash Flood Watch     Rip Current Statement Rip Current Statement        SOUTHERN QUEENS  -  Heat Advisory Heat Advisory     Flash Flood Watch Flash Flood Watch     Rip Current Statement Rip Current Statement        NORTHERN NASSAU  -  Flash Flood Watch Flash Flood Watch     Rip Current Statement Rip Current Statement        SOUTHERN NASSAU  -  Flash Flood Watch Flash Flood Watch     Rip Current Statement Rip Current Statement        NORTHEAST SUFFOLK  -  Rip Current Statement Rip Current Statement        NORTHWEST SUFFOLK  -  Rip Current Statement Rip Current Statement        SOUTHEAST SUFFOLK  -  Rip Current Statement Rip Current Statement        SOUTHWEST SUFFOLK  -  Rip Current Statement Rip Current Statement      

Active alerts

Northern Queens
  Details for Northern Queens Heat Advisory  +2 additional alerts
Southern Queens
  Details for Southern Queens Heat Advisory  +2 additional alerts
Northern Nassau
  Details for Northern Nassau Flash Flood Watch  +1 additional alert
Southern Nassau
  Details for Southern Nassau Flash Flood Watch  +1 additional alert
Northwest Suffolk
  Details for Northwest Suffolk Rip Current Statement
Southwest Suffolk
  Details for Southwest Suffolk Rip Current Statement
Northeast Suffolk
  Details for Northeast Suffolk Rip Current Statement
Southeast Suffolk
  Details for Southeast Suffolk Rip Current Statement


WXM80 ListenWXM80 Stop

You find our weather info also at:

UK Metoffice

WeatherCloud

Weather Underground

Northeastern Weather Network

AWEKAS

Citizen Weather Observer Program (CWOP)

HAMweather, WeatherForYou, PWS Weather


Weather Underground History page Text

Daily Summary for June 23, 2017 Units:  Both    English   Metric
« Previous Day
Next Day »
Daily Weekly Monthly Yearly Custom
  High: Low: Average:
Temperature: 85.8 °F /  29.9 °C 74.2 °F /  23.4 °C 78.7 °F /  25.9 °C
Dew Point: 76.1 °F /  24.5 °C 70.0 °F /  21.1 °C 72.8 °F /  22.7 °C
Humidity: 90 % 69 % 82 %
Wind Speed: 8.3 mph /  13.4 km/h - 1.6 mph /  2.6 km/h
Wind Gust: 19.6 mph /  31.5 km/h - -
Wind:- - SSW
Pressure: 29.86 in /  1011.1 hPa 29.57 in /  1001.2 hPa -
Precipitation: 0.00 in /  0 mm    
Historical Graphs
 
 
Tabular Data for June 23, 2017
Time Temperature Dew Point Pressure Wind Wind Speed Wind Gust Humidity Rainfall Rate (Hourly)
00:00 74.2 °F /  23.4 °C 70.1 °F /  21.2 °C 29.86 in /  1011.1 hPa SW 1.2 mph /  1.9 km/h 4.6 mph /  7.4 km/h 87 % 0.00 in /  0 mm
00:05 74.2 °F /  23.4 °C 70.1 °F /  21.2 °C 29.85 in /  1010.7 hPa SSW 0.8 mph /  1.3 km/h 2.3 mph /  3.7 km/h 87 % 0.00 in /  0 mm
00:10 74.3 °F /  23.5 °C 70.2 °F /  21.2 °C 29.85 in /  1010.7 hPa SSW 2.9 mph /  4.7 km/h 4.6 mph /  7.4 km/h 87 % 0.00 in /  0 mm
00:15 74.4 °F /  23.6 °C 70.3 °F /  21.3 °C 29.85 in /  1010.7 hPa SSE 1.9 mph /  3.1 km/h 3.5 mph /  5.6 km/h 87 % 0.00 in /  0 mm
00:20 74.4 °F /  23.6 °C 70.3 °F /  21.3 °C 29.85 in /  1010.7 hPa SW 1.7 mph /  2.7 km/h 3.5 mph /  5.6 km/h 87 % 0.00 in /  0 mm
00:25 74.5 °F /  23.6 °C 70.4 °F /  21.3 °C 29.85 in /  1010.7 hPa WSW 0.9 mph /  1.4 km/h 3.5 mph /  5.6 km/h 87 % 0.00 in /  0 mm
00:30 74.5 °F /  23.6 °C 70.0 °F /  21.1 °C 29.85 in /  1010.7 hPa WSW 1.1 mph /  1.8 km/h 2.3 mph /  3.7 km/h 86 % 0.00 in /  0 mm
00:35 74.6 °F /  23.7 °C 70.1 °F /  21.2 °C 29.85 in /  1010.7 hPa SW 0.9 mph /  1.4 km/h 3.5 mph /  5.6 km/h 86 % 0.00 in /  0 mm
00:40 74.6 °F /  23.7 °C 70.1 °F /  21.2 °C 29.84 in /  1010.4 hPa SW 0.9 mph /  1.4 km/h 2.3 mph /  3.7 km/h 86 % 0.00 in /  0 mm
00:45 74.7 °F /  23.7 °C 70.2 °F /  21.2 °C 29.85 in /  1010.7 hPa SW 0.4 mph /  0.6 km/h 2.3 mph /  3.7 km/h 86 % 0.00 in /  0 mm
00:50 74.7 °F /  23.7 °C 70.2 °F /  21.2 °C 29.84 in /  1010.4 hPa Calm   3.5 mph /  5.6 km/h 86 % 0.00 in /  0 mm
00:55 74.8 °F /  23.8 °C 70.3 °F /  21.3 °C 29.84 in /  1010.4 hPa WSW 0.7 mph /  1.1 km/h 3.5 mph /  5.6 km/h 86 % 0.00 in /  0 mm
01:00 74.8 °F /  23.8 °C 70.3 °F /  21.3 °C 29.84 in /  1010.4 hPa WSW 0.9 mph /  1.4 km/h 3.5 mph /  5.6 km/h 86 % 0.00 in /  0 mm
01:05 74.8 °F /  23.8 °C 70.3 °F /  21.3 °C 29.83 in /  1010 hPa WSW 1.0 mph /  1.6 km/h 2.3 mph /  3.7 km/h 86 % 0.00 in /  0 mm
01:10 74.9 °F /  23.8 °C 70.4 °F /  21.3 °C 29.84 in /  1010.4 hPa WSW 0.6 mph /  1 km/h 3.5 mph /  5.6 km/h 86 % 0.00 in /  0 mm
01:15 75.0 °F /  23.9 °C 70.5 °F /  21.4 °C 29.84 in /  1010.4 hPa SW 1.5 mph /  2.4 km/h 3.5 mph /  5.6 km/h 86 % 0.00 in /  0 mm
01:21 75.0 °F /  23.9 °C 70.5 °F /  21.4 °C 29.83 in /  1010 hPa SW 2.0 mph /  3.2 km/h 4.0 mph /  6.4 km/h 86 % 0.00 in /  0 mm
01:26 75.1 °F /  23.9 °C 70.6 °F /  21.4 °C 29.83 in /  1010 hPa Calm   5.0 mph /  8 km/h 86 % 0.00 in /  0 mm
01:31 75.1 °F /  23.9 °C 70.6 °F /  21.4 °C 29.83 in /  1010 hPa SSW 1.0 mph /  1.6 km/h 3.0 mph /  4.8 km/h 86 % 0.00 in /  0 mm
01:36 75.2 °F /  24 °C 70.7 °F /  21.5 °C 29.83 in /  1010 hPa Calm   3.0 mph /  4.8 km/h 86 % 0.00 in /  0 mm
01:41 75.2 °F /  24 °C 70.7 °F /  21.5 °C 29.82 in /  1009.7 hPa SW 1.0 mph /  1.6 km/h 5.0 mph /  8 km/h 86 % 0.00 in /  0 mm
01:46 75.3 °F /  24.1 °C 70.8 °F /  21.6 °C 29.82 in /  1009.7 hPa SSW 1.0 mph /  1.6 km/h 3.5 mph /  5.6 km/h 86 % 0.00 in /  0 mm
01:51 75.3 °F /  24.1 °C 70.8 °F /  21.6 °C 29.82 in /  1009.7 hPa SW 2.0 mph /  3.2 km/h 5.0 mph /  8 km/h 86 % 0.00 in /  0 mm
01:56 75.3 °F /  24.1 °C 70.8 °F /  21.6 °C 29.82 in /  1009.7 hPa SW 1.0 mph /  1.6 km/h 6.0 mph /  9.7 km/h 86 % 0.00 in /  0 mm
02:01 75.3 °F /  24.1 °C 70.8 °F /  21.6 °C 29.82 in /  1009.7 hPa NW 0.9 mph /  1.4 km/h 3.5 mph /  5.6 km/h 86 % 0.00 in /  0 mm
02:06 75.4 °F /  24.1 °C 70.9 °F /  21.6 °C 29.82 in /  1009.7 hPa West 1.7 mph /  2.7 km/h 3.5 mph /  5.6 km/h 86 % 0.00 in /  0 mm
02:11 75.4 °F /  24.1 °C 70.9 °F /  21.6 °C 29.81 in /  1009.4 hPa West 2.3 mph /  3.7 km/h 3.5 mph /  5.6 km/h 86 % 0.00 in /  0 mm
02:16 75.5 °F /  24.2 °C 71.0 °F /  21.7 °C 29.81 in /  1009.4 hPa West 0.2 mph /  0.3 km/h 3.5 mph /  5.6 km/h 86 % 0.00 in /  0 mm
02:21 75.6 °F /  24.2 °C 71.1 °F /  21.7 °C 29.81 in /  1009.4 hPa WSW 3.0 mph /  4.8 km/h 3.5 mph /  5.6 km/h 86 % 0.00 in /  0 mm
02:26 75.6 °F /  24.2 °C 71.1 °F /  21.7 °C 29.81 in /  1009.4 hPa SW 1.6 mph /  2.6 km/h 3.5 mph /  5.6 km/h 86 % 0.00 in /  0 mm
02:31 75.6 °F /  24.2 °C 71.1 °F /  21.7 °C 29.80 in /  1009 hPa SW 1.0 mph /  1.6 km/h 3.5 mph /  5.6 km/h 86 % 0.00 in /  0 mm
02:36 75.7 °F /  24.3 °C 71.2 °F /  21.8 °C 29.80 in /  1009 hPa SW 0.8 mph /  1.3 km/h 3.5 mph /  5.6 km/h 86 % 0.00 in /  0 mm
02:41 75.7 °F /  24.3 °C 71.2 °F /  21.8 °C 29.80 in /  1009 hPa SSW 1.3 mph /  2.1 km/h 2.3 mph /  3.7 km/h 86 % 0.00 in /  0 mm
02:46 75.7 °F /  24.3 °C 71.2 °F /  21.8 °C 29.80 in /  1009 hPa SSW 1.1 mph /  1.8 km/h 2.3 mph /  3.7 km/h 86 % 0.00 in /  0 mm
02:51 75.7 °F /  24.3 °C 71.2 °F /  21.8 °C 29.80 in /  1009 hPa SW 1.7 mph /  2.7 km/h 3.5 mph /  5.6 km/h 86 % 0.00 in /  0 mm
02:56 75.8 °F /  24.3 °C 71.3 °F /  21.8 °C 29.79 in /  1008.7 hPa SW 1.3 mph /  2.1 km/h 5.0 mph /  8 km/h 86 % 0.00 in /  0 mm
03:01 75.8 °F /  24.3 °C 71.3 °F /  21.8 °C 29.79 in /  1008.7 hPa WSW 1.6 mph /  2.6 km/h 3.5 mph /  5.6 km/h 86 % 0.00 in /  0 mm
03:06 75.8 °F /  24.3 °C 71.3 °F /  21.8 °C 29.79 in /  1008.7 hPa SW 0.7 mph /  1.1 km/h 2.3 mph /  3.7 km/h 86 % 0.00 in /  0 mm
03:11 75.8 °F /  24.3 °C 71.3 °F /  21.8 °C 29.79 in /  1008.7 hPa SW 2.5 mph /  4 km/h 3.5 mph /  5.6 km/h 86 % 0.00 in /  0 mm
03:16 75.9 °F /  24.4 °C 71.1 °F /  21.7 °C 29.78 in /  1008.4 hPa SW 0.8 mph /  1.3 km/h 3.5 mph /  5.6 km/h 85 % 0.00 in /  0 mm
03:21 75.9 °F /  24.4 °C 71.1 °F /  21.7 °C 29.79 in /  1008.7 hPa SSW 2.0 mph /  3.2 km/h 6.0 mph /  9.7 km/h 85 % 0.00 in /  0 mm
03:26 75.9 °F /  24.4 °C 71.1 °F /  21.7 °C 29.79 in /  1008.7 hPa SSW 2.4 mph /  3.9 km/h 3.5 mph /  5.6 km/h 85 % 0.00 in /  0 mm
03:31 75.9 °F /  24.4 °C 71.1 °F /  21.7 °C 29.79 in /  1008.7 hPa WSW 2.5 mph /  4 km/h 5.8 mph /  9.3 km/h 85 % 0.00 in /  0 mm
03:36 75.9 °F /  24.4 °C 71.1 °F /  21.7 °C 29.78 in /  1008.4 hPa WSW 2.0 mph /  3.2 km/h 3.5 mph /  5.6 km/h 85 % 0.00 in /  0 mm
03:41 76.0 °F /  24.4 °C 71.2 °F /  21.8 °C 29.78 in /  1008.4 hPa SSW 2.4 mph /  3.9 km/h 5.0 mph /  8 km/h 85 % 0.00 in /  0 mm
03:46 76.0 °F /  24.4 °C 71.2 °F /  21.8 °C 29.78 in /  1008.4 hPa SSW 1.2 mph /  1.9 km/h 3.5 mph /  5.6 km/h 85 % 0.00 in /  0 mm
03:51 76.0 °F /  24.4 °C 71.2 °F /  21.8 °C 29.78 in /  1008.4 hPa SW 1.3 mph /  2.1 km/h 3.5 mph /  5.6 km/h 85 % 0.00 in /  0 mm
03:57 76.0 °F /  24.4 °C 71.2 °F /  21.8 °C 29.78 in /  1008.4 hPa SW 0.5 mph /  0.8 km/h 2.3 mph /  3.7 km/h 85 % 0.00 in /  0 mm
04:02 75.9 °F /  24.4 °C 71.1 °F /  21.7 °C 29.78 in /  1008.4 hPa WSW 0.3 mph /  0.5 km/h 2.3 mph /  3.7 km/h 85 % 0.00 in /  0 mm
04:07 75.9 °F /  24.4 °C 71.1 °F /  21.7 °C 29.78 in /  1008.4 hPa SW 0.8 mph /  1.3 km/h 3.5 mph /  5.6 km/h 85 % 0.00 in /  0 mm
04:12 75.8 °F /  24.3 °C 71.0 °F /  21.7 °C 29.78 in /  1008.4 hPa SW 1.2 mph /  1.9 km/h 1.2 mph /  1.9 km/h 85 % 0.00 in /  0 mm
04:17 75.8 °F /  24.3 °C 71.3 °F /  21.8 °C 29.78 in /  1008.4 hPa SW 1.8 mph /  2.9 km/h 3.0 mph /  4.8 km/h 86 % 0.00 in /  0 mm
04:22 75.7 °F /  24.3 °C 71.2 °F /  21.8 °C 29.78 in /  1008.4 hPa SW 1.5 mph /  2.4 km/h 3.5 mph /  5.6 km/h 86 % 0.00 in /  0 mm
04:27 75.7 °F /  24.3 °C 71.2 °F /  21.8 °C 29.78 in /  1008.4 hPa SW 1.0 mph /  1.6 km/h 2.3 mph /  3.7 km/h 86 % 0.00 in /  0 mm
04:32 75.6 °F /  24.2 °C 71.1 °F /  21.7 °C 29.78 in /  1008.4 hPa SSW 0.9 mph /  1.4 km/h 2.3 mph /  3.7 km/h 86 % 0.00 in /  0 mm
04:37 75.5 °F /  24.2 °C 71.0 °F /  21.7 °C 29.78 in /  1008.4 hPa SSW 0.7 mph /  1.1 km/h 2.3 mph /  3.7 km/h 86 % 0.00 in /  0 mm
04:42 75.5 °F /  24.2 °C 71.0 °F /  21.7 °C 29.78 in /  1008.4 hPa SSW 0.6 mph /  1 km/h 2.3 mph /  3.7 km/h 86 % 0.00 in /  0 mm
04:47 75.4 °F /  24.1 °C 70.9 °F /  21.6 °C 29.77 in /  1008 hPa SSW 0.1 mph /  0.2 km/h 1.2 mph /  1.9 km/h 86 % 0.00 in /  0 mm
04:52 75.3 °F /  24.1 °C 70.8 °F /  21.6 °C 29.77 in /  1008 hPa WSW 0.1 mph /  0.2 km/h 1.2 mph /  1.9 km/h 86 % 0.00 in /  0 mm
04:57 75.3 °F /  24.1 °C 71.2 °F /  21.8 °C 29.78 in /  1008.4 hPa SW 0.9 mph /  1.4 km/h 2.3 mph /  3.7 km/h 87 % 0.00 in /  0 mm
05:02 75.2 °F /  24 °C 71.1 °F /  21.7 °C 29.77 in /  1008 hPa SW 1.2 mph /  1.9 km/h 3.5 mph /  5.6 km/h 87 % 0.00 in /  0 mm
05:07 75.1 °F /  23.9 °C 71.0 °F /  21.7 °C 29.78 in /  1008.4 hPa South 1.2 mph /  1.9 km/h 3.5 mph /  5.6 km/h 87 % 0.00 in /  0 mm
05:12 75.1 °F /  23.9 °C 71.0 °F /  21.7 °C 29.78 in /  1008.4 hPa South 0.6 mph /  1 km/h 2.3 mph /  3.7 km/h 87 % 0.00 in /  0 mm
05:17 75.0 °F /  23.9 °C 71.2 °F /  21.8 °C 29.78 in /  1008.4 hPa South 0.3 mph /  0.5 km/h 3.5 mph /  5.6 km/h 88 % 0.00 in /  0 mm
05:22 74.9 °F /  23.8 °C 71.1 °F /  21.7 °C 29.78 in /  1008.4 hPa South 0.1 mph /  0.2 km/h 1.2 mph /  1.9 km/h 88 % 0.00 in /  0 mm
05:27 74.9 °F /  23.8 °C 71.1 °F /  21.7 °C 29.78 in /  1008.4 hPa SSE 0.4 mph /  0.6 km/h 1.2 mph /  1.9 km/h 88 % 0.00 in /  0 mm
05:32 74.8 °F /  23.8 °C 71.0 °F /  21.7 °C 29.78 in /  1008.4 hPa SSE 0.6 mph /  1 km/h 1.2 mph /  1.9 km/h 88 % 0.00 in /  0 mm
05:37 74.8 °F /  23.8 °C 71.0 °F /  21.7 °C 29.78 in /  1008.4 hPa SSE 0.3 mph /  0.5 km/h 2.3 mph /  3.7 km/h 88 % 0.00 in /  0 mm
05:42 74.7 °F /  23.7 °C 70.9 °F /  21.6 °C 29.78 in /  1008.4 hPa SSE 1.9 mph /  3.1 km/h 3.5 mph /  5.6 km/h 88 % 0.00 in /  0 mm
05:47 74.7 °F /  23.7 °C 70.9 °F /  21.6 °C 29.78 in /  1008.4 hPa South 1.7 mph /  2.7 km/h 3.5 mph /  5.6 km/h 88 % 0.00 in /  0 mm
05:58 74.6 °F /  23.7 °C 71.1 °F /  21.7 °C 29.79 in /  1008.7 hPa West 2.1 mph /  3.4 km/h 4.6 mph /  7.4 km/h 89 % 0.00 in /  0 mm
06:03 74.6 °F /  23.7 °C 71.1 °F /  21.7 °C 29.79 in /  1008.7 hPa SW 1.0 mph /  1.6 km/h 3.5 mph /  5.6 km/h 89 % 0.00 in /  0 mm
06:08 74.6 °F /  23.7 °C 71.1 °F /  21.7 °C 29.78 in /  1008.4 hPa WSW 1.8 mph /  2.9 km/h 3.5 mph /  5.6 km/h 89 % 0.00 in /  0 mm
06:13 74.6 °F /  23.7 °C 71.1 °F /  21.7 °C 29.78 in /  1008.4 hPa SW 2.3 mph /  3.7 km/h 3.0 mph /  4.8 km/h 89 % 0.00 in /  0 mm
06:18 74.6 °F /  23.7 °C 71.1 °F /  21.7 °C 29.79 in /  1008.7 hPa WSW 0.3 mph /  0.5 km/h 1.2 mph /  1.9 km/h 89 % 0.00 in /  0 mm
06:23 74.7 °F /  23.7 °C 71.2 °F /  21.8 °C 29.78 in /  1008.4 hPa WSW 0.7 mph /  1.1 km/h 3.5 mph /  5.6 km/h 89 % 0.00 in /  0 mm
06:28 74.8 °F /  23.8 °C 71.3 °F /  21.8 °C 29.78 in /  1008.4 hPa SSW 0.4 mph /  0.6 km/h 2.3 mph /  3.7 km/h 89 % 0.00 in /  0 mm
06:33 74.9 °F /  23.8 °C 71.8 °F /  22.1 °C 29.78 in /  1008.4 hPa SSW 0.3 mph /  0.5 km/h 1.2 mph /  1.9 km/h 90 % 0.00 in /  0 mm
06:38 75.0 °F /  23.9 °C 71.9 °F /  22.2 °C 29.79 in /  1008.7 hPa SW 2.2 mph /  3.5 km/h 3.5 mph /  5.6 km/h 90 % 0.00 in /  0 mm
06:43 75.3 °F /  24.1 °C 72.2 °F /  22.3 °C 29.79 in /  1008.7 hPa SW 0.8 mph /  1.3 km/h 2.3 mph /  3.7 km/h 90 % 0.00 in /  0 mm
06:48 75.5 °F /  24.2 °C 72.4 °F /  22.4 °C 29.79 in /  1008.7 hPa SW 0.8 mph /  1.3 km/h 3.5 mph /  5.6 km/h 90 % 0.00 in /  0 mm
06:53 75.8 °F /  24.3 °C 72.3 °F /  22.4 °C 29.79 in /  1008.7 hPa WSW 1.2 mph /  1.9 km/h 3.5 mph /  5.6 km/h 89 % 0.00 in /  0 mm
06:58 76.0 °F /  24.4 °C 72.5 °F /  22.5 °C 29.79 in /  1008.7 hPa South 0.5 mph /  0.8 km/h 2.3 mph /  3.7 km/h 89 % 0.00 in /  0 mm
07:03 76.2 °F /  24.6 °C 72.4 °F /  22.4 °C 29.79 in /  1008.7 hPa SW 0.8 mph /  1.3 km/h 2.3 mph /  3.7 km/h 88 % 0.00 in /  0 mm
07:08 76.3 °F /  24.6 °C 72.5 °F /  22.5 °C 29.79 in /  1008.7 hPa WSW 0.1 mph /  0.2 km/h 1.0 mph /  1.6 km/h 88 % 0.00 in /  0 mm
07:13 76.4 °F /  24.7 °C 72.6 °F /  22.6 °C 29.79 in /  1008.7 hPa SW 3.4 mph /  5.5 km/h 6.9 mph /  11.1 km/h 88 % 0.00 in /  0 mm
07:18 76.6 °F /  24.8 °C 72.4 °F /  22.4 °C 29.78 in /  1008.4 hPa WSW 0.2 mph /  0.3 km/h 2.3 mph /  3.7 km/h 87 % 0.00 in /  0 mm
07:23 76.6 °F /  24.8 °C 72.4 °F /  22.4 °C 29.78 in /  1008.4 hPa West 0.5 mph /  0.8 km/h 4.0 mph /  6.4 km/h 87 % 0.00 in /  0 mm
07:28 76.7 °F /  24.8 °C 72.5 °F /  22.5 °C 29.78 in /  1008.4 hPa Calm   2.3 mph /  3.7 km/h 87 % 0.00 in /  0 mm
07:33 76.8 °F /  24.9 °C 72.6 °F /  22.6 °C 29.78 in /  1008.4 hPa West 0.5 mph /  0.8 km/h 3.5 mph /  5.6 km/h 87 % 0.00 in /  0 mm
07:38 76.9 °F /  24.9 °C 72.7 °F /  22.6 °C 29.78 in /  1008.4 hPa SW 1.6 mph /  2.6 km/h 3.5 mph /  5.6 km/h 87 % 0.00 in /  0 mm
07:43 77.0 °F /  25 °C 72.8 °F /  22.7 °C 29.78 in /  1008.4 hPa South 0.6 mph /  1 km/h 2.3 mph /  3.7 km/h 87 % 0.00 in /  0 mm
07:48 77.1 °F /  25.1 °C 72.9 °F /  22.7 °C 29.78 in /  1008.4 hPa West 1.2 mph /  1.9 km/h 3.5 mph /  5.6 km/h 87 % 0.00 in /  0 mm
07:53 77.3 °F /  25.2 °C 73.1 °F /  22.8 °C 29.78 in /  1008.4 hPa Calm   1.2 mph /  1.9 km/h 87 % 0.00 in /  0 mm
07:59 77.5 °F /  25.3 °C 73.3 °F /  22.9 °C 29.78 in /  1008.4 hPa WSW 0.7 mph /  1.1 km/h 3.5 mph /  5.6 km/h 87 % 0.00 in /  0 mm
08:09 77.9 °F /  25.5 °C 73.0 °F /  22.8 °C 29.77 in /  1008 hPa WSW 0.3 mph /  0.5 km/h 3.5 mph /  5.6 km/h 85 % 0.00 in /  0 mm
08:14 78.1 °F /  25.6 °C 73.2 °F /  22.9 °C 29.78 in /  1008.4 hPa Calm   2.3 mph /  3.7 km/h 85 % 0.00 in /  0 mm
08:19 78.4 °F /  25.8 °C 73.5 °F /  23.1 °C 29.77 in /  1008 hPa WSW 0.6 mph /  1 km/h 3.5 mph /  5.6 km/h 85 % 0.00 in /  0 mm
08:24 78.7 °F /  25.9 °C 73.8 °F /  23.2 °C 29.77 in /  1008 hPa SSW 2.1 mph /  3.4 km/h 3.5 mph /  5.6 km/h 85 % 0.00 in /  0 mm
08:29 79.0 °F /  26.1 °C 73.7 °F /  23.2 °C 29.77 in /  1008 hPa West 0.8 mph /  1.3 km/h 2.3 mph /  3.7 km/h 84 % 0.00 in /  0 mm
08:34 79.3 °F /  26.3 °C 74.0 °F /  23.3 °C 29.77 in /  1008 hPa West 1.1 mph /  1.8 km/h 3.5 mph /  5.6 km/h 84 % 0.00 in /  0 mm
08:39 79.7 °F /  26.5 °C 73.7 °F /  23.2 °C 29.77 in /  1008 hPa East 0.2 mph /  0.3 km/h 2.3 mph /  3.7 km/h 82 % 0.00 in /  0 mm
08:44 80.1 °F /  26.7 °C 74.1 °F /  23.4 °C 29.77 in /  1008 hPa WSW 1.5 mph /  2.4 km/h 3.5 mph /  5.6 km/h 82 % 0.00 in /  0 mm
08:49 80.4 °F /  26.9 °C 74.4 °F /  23.6 °C 29.77 in /  1008 hPa WSW 0.8 mph /  1.3 km/h 2.3 mph /  3.7 km/h 82 % 0.00 in /  0 mm
08:54 80.7 °F /  27.1 °C 74.7 °F /  23.7 °C 29.76 in /  1007.7 hPa SSE 0.7 mph /  1.1 km/h 2.3 mph /  3.7 km/h 82 % 0.00 in /  0 mm
08:59 81.1 °F /  27.3 °C 74.7 °F /  23.7 °C 29.76 in /  1007.7 hPa Calm   1.2 mph /  1.9 km/h 81 % 0.00 in /  0 mm
09:04 81.3 °F /  27.4 °C 74.9 °F /  23.8 °C 29.76 in /  1007.7 hPa ENE 0.5 mph /  0.8 km/h 1.2 mph /  1.9 km/h 81 % 0.00 in /  0 mm
09:09 81.6 °F /  27.6 °C 74.8 °F /  23.8 °C 29.76 in /  1007.7 hPa SW 0.9 mph /  1.4 km/h 3.5 mph /  5.6 km/h 80 % 0.00 in /  0 mm
09:14 81.8 °F /  27.7 °C 75.0 °F /  23.9 °C 29.76 in /  1007.7 hPa SE 1.0 mph /  1.6 km/h 3.5 mph /  5.6 km/h 80 % 0.00 in /  0 mm
09:19 82.0 °F /  27.8 °C 75.2 °F /  24 °C 29.76 in /  1007.7 hPa SSE 0.7 mph /  1.1 km/h 1.2 mph /  1.9 km/h 80 % 0.00 in /  0 mm
09:24 82.1 °F /  27.8 °C 75.3 °F /  24.1 °C 29.75 in /  1007.3 hPa SW 1.1 mph /  1.8 km/h 3.5 mph /  5.6 km/h 80 % 0.00 in /  0 mm
09:29 82.1 °F /  27.8 °C 74.9 °F /  23.8 °C 29.75 in /  1007.3 hPa SW 0.4 mph /  0.6 km/h 2.3 mph /  3.7 km/h 79 % 0.00 in /  0 mm
09:34 82.1 °F /  27.8 °C 74.9 °F /  23.8 °C 29.75 in /  1007.3 hPa South 0.7 mph /  1.1 km/h 3.5 mph /  5.6 km/h 79 % 0.00 in /  0 mm
09:39 82.1 °F /  27.8 °C 74.9 °F /  23.8 °C 29.75 in /  1007.3 hPa Calm   1.0 mph /  1.6 km/h 79 % 0.00 in /  0 mm
09:44 82.0 °F /  27.8 °C 74.5 °F /  23.6 °C 29.75 in /  1007.3 hPa NW 0.1 mph /  0.2 km/h 2.3 mph /  3.7 km/h 78 % 0.00 in /  0 mm
09:49 82.0 °F /  27.8 °C 75.2 °F /  24 °C 29.75 in /  1007.3 hPa West 0.5 mph /  0.8 km/h 1.2 mph /  1.9 km/h 80 % 0.00 in /  0 mm
09:54 81.9 °F /  27.7 °C 75.1 °F /  23.9 °C 29.74 in /  1007 hPa East 0.2 mph /  0.3 km/h 1.0 mph /  1.6 km/h 80 % 0.00 in /  0 mm
09:59 82.0 °F /  27.8 °C 74.8 °F /  23.8 °C 29.74 in /  1007 hPa South 1.3 mph /  2.1 km/h 3.5 mph /  5.6 km/h 79 % 0.00 in /  0 mm
10:04 82.0 °F /  27.8 °C 74.8 °F /  23.8 °C 29.74 in /  1007 hPa South 0.1 mph /  0.2 km/h 2.3 mph /  3.7 km/h 79 % 0.00 in /  0 mm
10:09 82.0 °F /  27.8 °C 74.8 °F /  23.8 °C 29.73 in /  1006.7 hPa West 1.5 mph /  2.4 km/h 2.0 mph /  3.2 km/h 79 % 0.00 in /  0 mm
10:14 82.0 °F /  27.8 °C 75.2 °F /  24 °C 29.73 in /  1006.7 hPa SSW 1.7 mph /  2.7 km/h 3.0 mph /  4.8 km/h 80 % 0.00 in /  0 mm
10:20 82.0 °F /  27.8 °C 74.5 °F /  23.6 °C 29.74 in /  1007 hPa SSE 0.2 mph /  0.3 km/h 2.3 mph /  3.7 km/h 78 % 0.00 in /  0 mm
10:25 82.0 °F /  27.8 °C 74.8 °F /  23.8 °C 29.74 in /  1007 hPa SE 1.3 mph /  2.1 km/h 3.5 mph /  5.6 km/h 79 % 0.00 in /  0 mm
10:30 82.1 °F /  27.8 °C 74.9 °F /  23.8 °C 29.74 in /  1007 hPa West 0.3 mph /  0.5 km/h 2.3 mph /  3.7 km/h 79 % 0.00 in /  0 mm
10:35 82.2 °F /  27.9 °C 74.7 °F /  23.7 °C 29.73 in /  1006.7 hPa SSE 0.5 mph /  0.8 km/h 4.6 mph /  7.4 km/h 78 % 0.00 in /  0 mm
10:40 82.4 °F /  28 °C 74.8 °F /  23.8 °C 29.73 in /  1006.7 hPa South 0.2 mph /  0.3 km/h 2.3 mph /  3.7 km/h 78 % 0.00 in /  0 mm
10:45 82.5 °F /  28.1 °C 74.9 °F /  23.8 °C 29.73 in /  1006.7 hPa SW 0.2 mph /  0.3 km/h 1.2 mph /  1.9 km/h 78 % 0.00 in /  0 mm
10:50 82.6 °F /  28.1 °C 75.0 °F /  23.9 °C 29.73 in /  1006.7 hPa SSE 0.7 mph /  1.1 km/h 3.5 mph /  5.6 km/h 78 % 0.00 in /  0 mm
10:55 82.7 °F /  28.2 °C 75.1 °F /  23.9 °C 29.72 in /  1006.3 hPa SSE 2.1 mph /  3.4 km/h 9.2 mph /  14.8 km/h 78 % 0.00 in /  0 mm
11:00 82.6 °F /  28.1 °C 74.3 °F /  23.5 °C 29.72 in /  1006.3 hPa South 3.8 mph /  6.1 km/h 6.0 mph /  9.7 km/h 76 % 0.00 in /  0 mm
11:05 82.3 °F /  27.9 °C 74.7 °F /  23.7 °C 29.73 in /  1006.7 hPa SW 2.4 mph /  3.9 km/h 4.6 mph /  7.4 km/h 78 % 0.00 in /  0 mm
11:10 82.3 °F /  27.9 °C 75.1 °F /  23.9 °C 29.73 in /  1006.7 hPa SSW 2.5 mph /  4 km/h 3.5 mph /  5.6 km/h 79 % 0.00 in /  0 mm
11:15 81.9 °F /  27.7 °C 74.4 °F /  23.6 °C 29.73 in /  1006.7 hPa SSE 0.7 mph /  1.1 km/h 3.5 mph /  5.6 km/h 78 % 0.00 in /  0 mm
11:20 81.6 °F /  27.6 °C 74.5 °F /  23.6 °C 29.72 in /  1006.3 hPa SSW 2.3 mph /  3.7 km/h 3.5 mph /  5.6 km/h 79 % 0.00 in /  0 mm
11:25 81.4 °F /  27.4 °C 74.3 °F /  23.5 °C 29.72 in /  1006.3 hPa SSE 1.9 mph /  3.1 km/h 4.6 mph /  7.4 km/h 79 % 0.00 in /  0 mm
11:30 81.2 °F /  27.3 °C 74.4 °F /  23.6 °C 29.72 in /  1006.3 hPa WSW 0.8 mph /  1.3 km/h 2.3 mph /  3.7 km/h 80 % 0.00 in /  0 mm
11:35 81.0 °F /  27.2 °C 74.2 °F /  23.4 °C 29.72 in /  1006.3 hPa SSW 2.5 mph /  4 km/h 4.0 mph /  6.4 km/h 80 % 0.00 in /  0 mm
11:40 80.9 °F /  27.2 °C 74.5 °F /  23.6 °C 29.71 in /  1006 hPa SSE 2.2 mph /  3.5 km/h 3.5 mph /  5.6 km/h 81 % 0.00 in /  0 mm
11:45 80.9 °F /  27.2 °C 74.5 °F /  23.6 °C 29.71 in /  1006 hPa South 2.9 mph /  4.7 km/h 9.2 mph /  14.8 km/h 81 % 0.00 in /  0 mm
11:50 80.9 °F /  27.2 °C 74.5 °F /  23.6 °C 29.71 in /  1006 hPa South 1.0 mph /  1.6 km/h 3.5 mph /  5.6 km/h 81 % 0.00 in /  0 mm
11:55 81.0 °F /  27.2 °C 75.0 °F /  23.9 °C 29.71 in /  1006 hPa SSW 3.0 mph /  4.8 km/h 8.1 mph /  13 km/h 82 % 0.00 in /  0 mm
12:00 81.3 °F /  27.4 °C 74.9 °F /  23.8 °C 29.71 in /  1006 hPa SE 1.8 mph /  2.9 km/h 3.5 mph /  5.6 km/h 81 % 0.00 in /  0 mm
12:05 81.7 °F /  27.6 °C 75.3 °F /  24.1 °C 29.71 in /  1006 hPa SSW 1.4 mph /  2.3 km/h 8.1 mph /  13 km/h 81 % 0.00 in /  0 mm
12:11 82.0 °F /  27.8 °C 75.3 °F /  24.1 °C 29.71 in /  1006 hPa South 1.0 mph /  1.6 km/h 6.0 mph /  9.7 km/h 80 % 0.00 in /  0 mm
12:16 82.4 °F /  28 °C 75.6 °F /  24.2 °C 29.71 in /  1006 hPa South 1.0 mph /  1.6 km/h 8.0 mph /  12.9 km/h 80 % 0.00 in /  0 mm
12:21 82.8 °F /  28.2 °C 75.6 °F /  24.2 °C 29.70 in /  1005.6 hPa South 3.0 mph /  4.8 km/h 9.0 mph /  14.5 km/h 79 % 0.00 in /  0 mm
12:26 83.1 °F /  28.4 °C 75.9 °F /  24.4 °C 29.70 in /  1005.6 hPa SSW 1.0 mph /  1.6 km/h 9.0 mph /  14.5 km/h 79 % 0.00 in /  0 mm
12:31 83.5 °F /  28.6 °C 75.9 °F /  24.4 °C 29.70 in /  1005.6 hPa South 1.2 mph /  1.9 km/h 10.4 mph /  16.7 km/h 78 % 0.00 in /  0 mm
12:36 83.7 °F /  28.7 °C 75.3 °F /  24.1 °C 29.69 in /  1005.3 hPa SSW 2.0 mph /  3.2 km/h 7.0 mph /  11.3 km/h 76 % 0.00 in /  0 mm
12:41 84.0 °F /  28.9 °C 75.6 °F /  24.2 °C 29.69 in /  1005.3 hPa SW 2.0 mph /  3.2 km/h 10.0 mph /  16.1 km/h 76 % 0.00 in /  0 mm
12:46 84.4 °F /  29.1 °C 75.6 °F /  24.2 °C 29.69 in /  1005.3 hPa SSW 1.5 mph /  2.4 km/h 4.6 mph /  7.4 km/h 75 % 0.00 in /  0 mm
12:51 84.5 °F /  29.2 °C 75.7 °F /  24.3 °C 29.68 in /  1005 hPa WSW 1.1 mph /  1.8 km/h 9.0 mph /  14.5 km/h 75 % 0.00 in /  0 mm
12:56 84.7 °F /  29.3 °C 75.1 °F /  23.9 °C 29.68 in /  1005 hPa WSW 3.4 mph /  5.5 km/h 6.9 mph /  11.1 km/h 73 % 0.00 in /  0 mm
12:58 84.8 °F /  29.3 °C 75.6 °F /  24.2 °C 29.68 in /  1005 hPa SSE 0.6 mph /  1 km/h 3.5 mph /  5.6 km/h 74 % 0.00 in /  0 mm
13:03 85.1 °F /  29.5 °C 75.5 °F /  24.2 °C 29.68 in /  1005 hPa South 4.0 mph /  6.4 km/h 8.1 mph /  13 km/h 73 % 0.00 in /  0 mm
13:08 85.2 °F /  29.6 °C 75.1 °F /  23.9 °C 29.68 in /  1005 hPa ESE 1.4 mph /  2.3 km/h 6.9 mph /  11.1 km/h 72 % 0.00 in /  0 mm
13:13 85.2 °F /  29.6 °C 75.1 °F /  23.9 °C 29.68 in /  1005 hPa SSW 1.9 mph /  3.1 km/h 5.8 mph /  9.3 km/h 72 % 0.00 in /  0 mm
13:18 85.4 °F /  29.7 °C 75.3 °F /  24.1 °C 29.67 in /  1004.6 hPa South 4.5 mph /  7.2 km/h 6.0 mph /  9.7 km/h 72 % 0.00 in /  0 mm
13:23 85.4 °F /  29.7 °C 74.9 °F /  23.8 °C 29.67 in /  1004.6 hPa South 3.0 mph /  4.8 km/h 4.0 mph /  6.4 km/h 71 % 0.00 in /  0 mm
13:29 85.5 °F /  29.7 °C 75.4 °F /  24.1 °C 29.67 in /  1004.6 hPa SW 5.4 mph /  8.7 km/h 5.8 mph /  9.3 km/h 72 % 0.00 in /  0 mm
13:34 85.6 °F /  29.8 °C 75.5 °F /  24.2 °C 29.66 in /  1004.3 hPa SSW 2.5 mph /  4 km/h 7.0 mph /  11.3 km/h 72 % 0.00 in /  0 mm
13:39 85.8 °F /  29.9 °C 75.3 °F /  24.1 °C 29.66 in /  1004.3 hPa SSW 2.6 mph /  4.2 km/h 6.0 mph /  9.7 km/h 71 % 0.00 in /  0 mm
13:44 85.8 °F /  29.9 °C 76.1 °F /  24.5 °C 29.66 in /  1004.3 hPa SE 1.6 mph /  2.6 km/h 5.8 mph /  9.3 km/h 73 % 0.00 in /  0 mm
13:49 85.6 °F /  29.8 °C 74.3 °F /  23.5 °C 29.65 in /  1003.9 hPa SW 2.3 mph /  3.7 km/h 4.6 mph /  7.4 km/h 69 % 0.00 in /  0 mm
13:54 85.4 °F /  29.7 °C 74.5 °F /  23.6 °C 29.65 in /  1003.9 hPa SSE 1.6 mph /  2.6 km/h 5.0 mph /  8 km/h 70 % 0.00 in /  0 mm
13:59 85.0 °F /  29.4 °C 74.1 °F /  23.4 °C 29.65 in /  1003.9 hPa SSW 1.7 mph /  2.7 km/h 3.5 mph /  5.6 km/h 70 % 0.00 in /  0 mm
14:04 84.7 °F /  29.3 °C 73.8 °F /  23.2 °C 29.65 in /  1003.9 hPa WSW 2.0 mph /  3.2 km/h 19.6 mph /  31.5 km/h 70 % 0.00 in /  0 mm
14:09 84.3 °F /  29.1 °C 73.9 °F /  23.3 °C 29.65 in /  1003.9 hPa SSW 4.2 mph /  6.8 km/h 10.4 mph /  16.7 km/h 71 % 0.00 in /  0 mm
14:14 83.8 °F /  28.8 °C 73.8 °F /  23.2 °C 29.65 in /  1003.9 hPa SSW 1.6 mph /  2.6 km/h 4.6 mph /  7.4 km/h 72 % 0.00 in /  0 mm
14:19 83.5 °F /  28.6 °C 74.3 °F /  23.5 °C 29.65 in /  1003.9 hPa South 4.9 mph /  7.9 km/h 10.0 mph /  16.1 km/h 74 % 0.00 in /  0 mm
14:24 83.3 °F /  28.5 °C 73.7 °F /  23.2 °C 29.65 in /  1003.9 hPa SSW 3.8 mph /  6.1 km/h 5.8 mph /  9.3 km/h 73 % 0.00 in /  0 mm
14:29 82.9 °F /  28.3 °C 73.4 °F /  23 °C 29.65 in /  1003.9 hPa SW 4.6 mph /  7.4 km/h 7.0 mph /  11.3 km/h 73 % 0.00 in /  0 mm
14:34 82.7 °F /  28.2 °C 73.6 °F /  23.1 °C 29.65 in /  1003.9 hPa South 2.7 mph /  4.3 km/h 5.8 mph /  9.3 km/h 74 % 0.00 in /  0 mm
14:39 82.6 °F /  28.1 °C 73.5 °F /  23.1 °C 29.65 in /  1003.9 hPa SSW 2.3 mph /  3.7 km/h 3.5 mph /  5.6 km/h 74 % 0.00 in /  0 mm
14:44 82.5 °F /  28.1 °C 73.4 °F /  23 °C 29.64 in /  1003.6 hPa SSW 2.2 mph /  3.5 km/h 5.8 mph /  9.3 km/h 74 % 0.00 in /  0 mm
14:49 82.5 °F /  28.1 °C 73.4 °F /  23 °C 29.64 in /  1003.6 hPa WSW 4.3 mph /  6.9 km/h 6.9 mph /  11.1 km/h 74 % 0.00 in /  0 mm
14:54 82.5 °F /  28.1 °C 73.4 °F /  23 °C 29.64 in /  1003.6 hPa West 2.8 mph /  4.5 km/h 9.2 mph /  14.8 km/h 74 % 0.00 in /  0 mm
14:59 82.2 °F /  27.9 °C 73.1 °F /  22.8 °C 29.64 in /  1003.6 hPa SW 8.3 mph /  13.4 km/h 11.5 mph /  18.5 km/h 74 % 0.00 in /  0 mm
15:04 81.9 °F /  27.7 °C 73.2 °F /  22.9 °C 29.64 in /  1003.6 hPa SSW 3.3 mph /  5.3 km/h 6.9 mph /  11.1 km/h 75 % 0.00 in /  0 mm
15:10 81.7 °F /  27.6 °C 73.0 °F /  22.8 °C 29.64 in /  1003.6 hPa SSW 1.1 mph /  1.8 km/h 10.4 mph /  16.7 km/h 75 % 0.00 in /  0 mm
15:15 81.5 °F /  27.5 °C 73.2 °F /  22.9 °C 29.63 in /  1003.3 hPa WSW 2.2 mph /  3.5 km/h 6.0 mph /  9.7 km/h 76 % 0.00 in /  0 mm
15:20 81.4 °F /  27.4 °C 73.5 °F /  23.1 °C 29.63 in /  1003.3 hPa WSW 2.2 mph /  3.5 km/h 4.0 mph /  6.4 km/h 77 % 0.00 in /  0 mm
15:25 81.4 °F /  27.4 °C 73.5 °F /  23.1 °C 29.63 in /  1003.3 hPa SSE 0.5 mph /  0.8 km/h 3.0 mph /  4.8 km/h 77 % 0.00 in /  0 mm
15:30 81.4 °F /  27.4 °C 73.1 °F /  22.8 °C 29.64 in /  1003.6 hPa SW 4.1 mph /  6.6 km/h 6.9 mph /  11.1 km/h 76 % 0.00 in /  0 mm
15:35 81.2 °F /  27.3 °C 72.9 °F /  22.7 °C 29.63 in /  1003.3 hPa South 2.2 mph /  3.5 km/h 5.8 mph /  9.3 km/h 76 % 0.00 in /  0 mm
15:40 81.3 °F /  27.4 °C 73.4 °F /  23 °C 29.63 in /  1003.3 hPa SSW 3.4 mph /  5.5 km/h 6.9 mph /  11.1 km/h 77 % 0.00 in /  0 mm
15:45 81.4 °F /  27.4 °C 73.5 °F /  23.1 °C 29.63 in /  1003.3 hPa South 6.2 mph /  10 km/h 12.7 mph /  20.4 km/h 77 % 0.00 in /  0 mm
15:50 81.7 °F /  27.6 °C 73.4 °F /  23 °C 29.63 in /  1003.3 hPa SE 1.7 mph /  2.7 km/h 5.8 mph /  9.3 km/h 76 % 0.00 in /  0 mm
15:55 81.8 °F /  27.7 °C 73.1 °F /  22.8 °C 29.63 in /  1003.3 hPa SSW 2.1 mph /  3.4 km/h 5.0 mph /  8 km/h 75 % 0.00 in /  0 mm
16:00 81.7 °F /  27.6 °C 73.4 °F /  23 °C 29.63 in /  1003.3 hPa South 2.0 mph /  3.2 km/h 3.5 mph /  5.6 km/h 76 % 0.00 in /  0 mm
16:05 81.5 °F /  27.5 °C 73.2 °F /  22.9 °C 29.63 in /  1003.3 hPa SSW 3.6 mph /  5.8 km/h 6.9 mph /  11.1 km/h 76 % 0.00 in /  0 mm
16:10 81.5 °F /  27.5 °C 73.6 °F /  23.1 °C 29.62 in /  1002.9 hPa SW 2.1 mph /  3.4 km/h 4.6 mph /  7.4 km/h 77 % 0.00 in /  0 mm
16:15 81.6 °F /  27.6 °C 73.3 °F /  22.9 °C 29.62 in /  1002.9 hPa South 3.6 mph /  5.8 km/h 8.1 mph /  13 km/h 76 % 0.00 in /  0 mm
16:20 81.7 °F /  27.6 °C 73.8 °F /  23.2 °C 29.62 in /  1002.9 hPa SW 3.0 mph /  4.8 km/h 6.0 mph /  9.7 km/h 77 % 0.00 in /  0 mm
16:25 81.7 °F /  27.6 °C 73.4 °F /  23 °C 29.62 in /  1002.9 hPa North 4.2 mph /  6.8 km/h 6.9 mph /  11.1 km/h 76 % 0.00 in /  0 mm
16:30 81.7 °F /  27.6 °C 73.8 °F /  23.2 °C 29.62 in /  1002.9 hPa SW 1.7 mph /  2.7 km/h 4.6 mph /  7.4 km/h 77 % 0.00 in /  0 mm
16:35 81.7 °F /  27.6 °C 73.8 °F /  23.2 °C 29.62 in /  1002.9 hPa South 1.0 mph /  1.6 km/h 4.0 mph /  6.4 km/h 77 % 0.00 in /  0 mm
16:40 81.8 °F /  27.7 °C 73.9 °F /  23.3 °C 29.62 in /  1002.9 hPa SW 1.6 mph /  2.6 km/h 4.6 mph /  7.4 km/h 77 % 0.00 in /  0 mm
16:45 81.9 °F /  27.7 °C 74.4 °F /  23.6 °C 29.62 in /  1002.9 hPa SW 3.3 mph /  5.3 km/h 4.6 mph /  7.4 km/h 78 % 0.00 in /  0 mm
16:50 82.0 °F /  27.8 °C 73.7 °F /  23.2 °C 29.62 in /  1002.9 hPa SSE 3.6 mph /  5.8 km/h 5.8 mph /  9.3 km/h 76 % 0.00 in /  0 mm
16:55 81.8 °F /  27.7 °C 73.5 °F /  23.1 °C 29.62 in /  1002.9 hPa WSW 2.0 mph /  3.2 km/h 5.8 mph /  9.3 km/h 76 % 0.00 in /  0 mm
17:00 81.7 °F /  27.6 °C 73.4 °F /  23 °C 29.62 in /  1002.9 hPa SE 1.6 mph /  2.6 km/h 4.6 mph /  7.4 km/h 76 % 0.00 in /  0 mm
17:05 81.6 °F /  27.6 °C 73.7 °F /  23.2 °C 29.62 in /  1002.9 hPa SE 1.3 mph /  2.1 km/h 10.4 mph /  16.7 km/h 77 % 0.00 in /  0 mm
17:10 81.2 °F /  27.3 °C 73.3 °F /  22.9 °C 29.62 in /  1002.9 hPa SSW 3.2 mph /  5.1 km/h 3.5 mph /  5.6 km/h 77 % 0.00 in /  0 mm
17:15 81.1 °F /  27.3 °C 73.6 °F /  23.1 °C 29.62 in /  1002.9 hPa SSW 2.9 mph /  4.7 km/h 3.5 mph /  5.6 km/h 78 % 0.00 in /  0 mm
17:20 80.9 °F /  27.2 °C 73.0 °F /  22.8 °C 29.61 in /  1002.6 hPa SSW 1.8 mph /  2.9 km/h 9.2 mph /  14.8 km/h 77 % 0.00 in /  0 mm
17:26 80.7 °F /  27.1 °C 72.8 °F /  22.7 °C 29.61 in /  1002.6 hPa SSE 2.2 mph /  3.5 km/h 3.5 mph /  5.6 km/h 77 % 0.00 in /  0 mm
17:30 80.5 °F /  26.9 °C 73.0 °F /  22.8 °C 29.61 in /  1002.6 hPa West 1.2 mph /  1.9 km/h 3.5 mph /  5.6 km/h 78 % 0.00 in /  0 mm
17:36 80.4 °F /  26.9 °C 72.9 °F /  22.7 °C 29.61 in /  1002.6 hPa SSW 1.0 mph /  1.6 km/h 7.0 mph /  11.3 km/h 78 % 0.00 in /  0 mm
17:41 80.3 °F /  26.8 °C 72.8 °F /  22.7 °C 29.61 in /  1002.6 hPa South 5.0 mph /  8 km/h 12.0 mph /  19.3 km/h 78 % 0.00 in /  0 mm
17:46 80.1 °F /  26.7 °C 73.0 °F /  22.8 °C 29.62 in /  1002.9 hPa SE 2.9 mph /  4.7 km/h 8.1 mph /  13 km/h 79 % 0.00 in /  0 mm
17:51 80.1 °F /  26.7 °C 73.4 °F /  23 °C 29.61 in /  1002.6 hPa SSE 2.0 mph /  3.2 km/h 5.0 mph /  8 km/h 80 % 0.00 in /  0 mm
17:56 80.0 °F /  26.7 °C 73.3 °F /  22.9 °C 29.61 in /  1002.6 hPa Calm   5.0 mph /  8 km/h 80 % 0.00 in /  0 mm
18:01 80.0 °F /  26.7 °C 73.3 °F /  22.9 °C 29.61 in /  1002.6 hPa ESE 0.5 mph /  0.8 km/h 2.3 mph /  3.7 km/h 80 % 0.00 in /  0 mm
18:06 79.9 °F /  26.6 °C 72.8 °F /  22.7 °C 29.61 in /  1002.6 hPa ESE 0.3 mph /  0.5 km/h 2.3 mph /  3.7 km/h 79 % 0.00 in /  0 mm
18:11 79.8 °F /  26.6 °C 72.7 °F /  22.6 °C 29.61 in /  1002.6 hPa SSE 0.8 mph /  1.3 km/h 4.6 mph /  7.4 km/h 79 % 0.00 in /  0 mm
18:16 79.6 °F /  26.4 °C 72.9 °F /  22.7 °C 29.61 in /  1002.6 hPa SSW 2.6 mph /  4.2 km/h 3.5 mph /  5.6 km/h 80 % 0.00 in /  0 mm
18:21 79.5 °F /  26.4 °C 72.8 °F /  22.7 °C 29.61 in /  1002.6 hPa SSE 0.6 mph /  1 km/h 2.3 mph /  3.7 km/h 80 % 0.00 in /  0 mm
18:26 79.4 °F /  26.3 °C 72.7 °F /  22.6 °C 29.60 in /  1002.3 hPa South 1.5 mph /  2.4 km/h 3.0 mph /  4.8 km/h 80 % 0.00 in /  0 mm
18:31 79.3 °F /  26.3 °C 73.0 °F /  22.8 °C 29.60 in /  1002.3 hPa SSE 0.9 mph /  1.4 km/h 3.5 mph /  5.6 km/h 81 % 0.00 in /  0 mm
18:36 79.3 °F /  26.3 °C 73.0 °F /  22.8 °C 29.60 in /  1002.3 hPa SSW 1.4 mph /  2.3 km/h 4.6 mph /  7.4 km/h 81 % 0.00 in /  0 mm
18:41 79.3 °F /  26.3 °C 73.0 °F /  22.8 °C 29.59 in /  1001.9 hPa SSE 0.2 mph /  0.3 km/h 3.5 mph /  5.6 km/h 81 % 0.00 in /  0 mm
18:46 79.3 °F /  26.3 °C 73.0 °F /  22.8 °C 29.60 in /  1002.3 hPa South 0.9 mph /  1.4 km/h 3.5 mph /  5.6 km/h 81 % 0.00 in /  0 mm
18:51 79.3 °F /  26.3 °C 73.3 °F /  22.9 °C 29.60 in /  1002.3 hPa NNE 0.3 mph /  0.5 km/h 2.3 mph /  3.7 km/h 82 % 0.00 in /  0 mm
18:55 79.2 °F /  26.2 °C 73.2 °F /  22.9 °C 29.59 in /  1001.9 hPa SE 0.9 mph /  1.4 km/h 4.0 mph /  6.4 km/h 82 % 0.00 in /  0 mm
19:00 79.1 °F /  26.2 °C 72.8 °F /  22.7 °C 29.59 in /  1001.9 hPa SE 1.3 mph /  2.1 km/h 3.5 mph /  5.6 km/h 81 % 0.00 in /  0 mm
19:04 79.1 °F /  26.2 °C 72.8 °F /  22.7 °C 29.59 in /  1001.9 hPa South 1.2 mph /  1.9 km/h 4.6 mph /  7.4 km/h 81 % 0.00 in /  0 mm
19:10 79.0 °F /  26.1 °C 72.7 °F /  22.6 °C 29.59 in /  1001.9 hPa SSW 1.1 mph /  1.8 km/h 4.6 mph /  7.4 km/h 81 % 0.00 in /  0 mm
19:15 78.9 °F /  26.1 °C 72.6 °F /  22.6 °C 29.60 in /  1002.3 hPa SW 1.6 mph /  2.6 km/h 9.2 mph /  14.8 km/h 81 % 0.00 in /  0 mm
19:20 78.9 °F /  26.1 °C 72.6 °F /  22.6 °C 29.60 in /  1002.3 hPa SSE 1.8 mph /  2.9 km/h 8.1 mph /  13 km/h 81 % 0.00 in /  0 mm
19:25 78.8 °F /  26 °C 72.8 °F /  22.7 °C 29.60 in /  1002.3 hPa South 1.2 mph /  1.9 km/h 2.3 mph /  3.7 km/h 82 % 0.00 in /  0 mm
19:30 78.8 °F /  26 °C 72.8 °F /  22.7 °C 29.60 in /  1002.3 hPa SSE 0.6 mph /  1 km/h 1.2 mph /  1.9 km/h 82 % 0.00 in /  0 mm
19:35 78.8 °F /  26 °C 72.8 °F /  22.7 °C 29.60 in /  1002.3 hPa SSE 0.1 mph /  0.2 km/h 1.2 mph /  1.9 km/h 82 % 0.00 in /  0 mm
19:40 78.7 °F /  25.9 °C 72.7 °F /  22.6 °C 29.60 in /  1002.3 hPa ENE 1.7 mph /  2.7 km/h 3.5 mph /  5.6 km/h 82 % 0.00 in /  0 mm
19:45 78.6 °F /  25.9 °C 72.3 °F /  22.4 °C 29.59 in /  1001.9 hPa South 0.6 mph /  1 km/h 3.0 mph /  4.8 km/h 81 % 0.00 in /  0 mm
19:50 78.5 °F /  25.8 °C 72.5 °F /  22.5 °C 29.60 in /  1002.3 hPa SE 1.6 mph /  2.6 km/h 4.0 mph /  6.4 km/h 82 % 0.00 in /  0 mm
19:55 78.4 °F /  25.8 °C 72.4 °F /  22.4 °C 29.60 in /  1002.3 hPa SSE 1.3 mph /  2.1 km/h 3.5 mph /  5.6 km/h 82 % 0.00 in /  0 mm
20:00 78.3 °F /  25.7 °C 72.3 °F /  22.4 °C 29.59 in /  1001.9 hPa SE 1.4 mph /  2.3 km/h 3.5 mph /  5.6 km/h 82 % 0.00 in /  0 mm
20:05 78.2 °F /  25.7 °C 72.3 °F /  22.4 °C 29.59 in /  1001.9 hPa South 0.7 mph /  1.1 km/h 3.5 mph /  5.6 km/h 82 % 0.00 in /  0 mm
20:10 78.1 °F /  25.6 °C 72.2 °F /  22.3 °C 29.59 in /  1001.9 hPa SW 1.7 mph /  2.7 km/h 3.5 mph /  5.6 km/h 82 % 0.00 in /  0 mm
20:15 78.1 °F /  25.6 °C 72.2 °F /  22.3 °C 29.59 in /  1001.9 hPa SSW 1.5 mph /  2.4 km/h 3.5 mph /  5.6 km/h 82 % 0.00 in /  0 mm
20:20 78.0 °F /  25.6 °C 72.1 °F /  22.3 °C 29.59 in /  1001.9 hPa SSW 2.3 mph /  3.7 km/h 5.8 mph /  9.3 km/h 82 % 0.00 in /  0 mm
20:25 77.9 °F /  25.5 °C 72.0 °F /  22.2 °C 29.60 in /  1002.3 hPa South 1.3 mph /  2.1 km/h 6.9 mph /  11.1 km/h 82 % 0.00 in /  0 mm
20:30 77.7 °F /  25.4 °C 71.8 °F /  22.1 °C 29.59 in /  1001.9 hPa SSW 1.2 mph /  1.9 km/h 3.5 mph /  5.6 km/h 82 % 0.00 in /  0 mm
20:35 77.5 °F /  25.3 °C 71.9 °F /  22.2 °C 29.59 in /  1001.9 hPa SW 0.3 mph /  0.5 km/h 3.5 mph /  5.6 km/h 83 % 0.00 in /  0 mm
20:40 77.3 °F /  25.2 °C 71.7 °F /  22.1 °C 29.59 in /  1001.9 hPa South 2.1 mph /  3.4 km/h 5.8 mph /  9.3 km/h 83 % 0.00 in /  0 mm
20:45 77.1 °F /  25.1 °C 71.9 °F /  22.2 °C 29.59 in /  1001.9 hPa SSW 1.2 mph /  1.9 km/h 3.5 mph /  5.6 km/h 84 % 0.00 in /  0 mm
20:50 76.9 °F /  24.9 °C 71.7 °F /  22.1 °C 29.59 in /  1001.9 hPa WSW 1.3 mph /  2.1 km/h 4.0 mph /  6.4 km/h 84 % 0.00 in /  0 mm
20:55 76.7 °F /  24.8 °C 71.8 °F /  22.1 °C 29.59 in /  1001.9 hPa SW 2.1 mph /  3.4 km/h 3.5 mph /  5.6 km/h 85 % 0.00 in /  0 mm
21:01 76.6 °F /  24.8 °C 72.1 °F /  22.3 °C 29.59 in /  1001.9 hPa SSW 1.2 mph /  1.9 km/h 2.0 mph /  3.2 km/h 86 % 0.00 in /  0 mm
21:06 76.4 °F /  24.7 °C 71.9 °F /  22.2 °C 29.59 in /  1001.9 hPa SSW 1.0 mph /  1.6 km/h 4.0 mph /  6.4 km/h 86 % 0.00 in /  0 mm
21:11 76.2 °F /  24.6 °C 71.7 °F /  22.1 °C 29.59 in /  1001.9 hPa SSW 2.0 mph /  3.2 km/h 4.0 mph /  6.4 km/h 86 % 0.00 in /  0 mm
21:16 76.0 °F /  24.4 °C 71.8 °F /  22.1 °C 29.59 in /  1001.9 hPa SSW 1.0 mph /  1.6 km/h 4.0 mph /  6.4 km/h 87 % 0.00 in /  0 mm
21:21 75.8 °F /  24.3 °C 71.7 °F /  22.1 °C 29.59 in /  1001.9 hPa SSW 1.0 mph /  1.6 km/h 5.0 mph /  8 km/h 87 % 0.00 in /  0 mm
21:26 75.7 °F /  24.3 °C 71.9 °F /  22.2 °C 29.59 in /  1001.9 hPa South 1.0 mph /  1.6 km/h 3.0 mph /  4.8 km/h 88 % 0.00 in /  0 mm
21:31 75.5 °F /  24.2 °C 71.7 °F /  22.1 °C 29.58 in /  1001.6 hPa South 2.0 mph /  3.2 km/h 5.0 mph /  8 km/h 88 % 0.00 in /  0 mm
21:36 75.4 °F /  24.1 °C 71.6 °F /  22 °C 29.58 in /  1001.6 hPa South 1.0 mph /  1.6 km/h 5.0 mph /  8 km/h 88 % 0.00 in /  0 mm
21:41 75.3 °F /  24.1 °C 71.5 °F /  21.9 °C 29.58 in /  1001.6 hPa South 1.0 mph /  1.6 km/h 4.0 mph /  6.4 km/h 88 % 0.00 in /  0 mm
21:45 75.2 °F /  24 °C 71.4 °F /  21.9 °C 29.58 in /  1001.6 hPa SW 1.5 mph /  2.4 km/h 7.0 mph /  11.3 km/h 88 % 0.00 in /  0 mm
21:51 75.2 °F /  24 °C 71.7 °F /  22.1 °C 29.59 in /  1001.9 hPa SSW 2.0 mph /  3.2 km/h 6.0 mph /  9.7 km/h 89 % 0.00 in /  0 mm
21:56 75.2 °F /  24 °C 71.7 °F /  22.1 °C 29.59 in /  1001.9 hPa SSW 2.0 mph /  3.2 km/h 7.0 mph /  11.3 km/h 89 % 0.00 in /  0 mm
22:01 75.3 °F /  24.1 °C 71.8 °F /  22.1 °C 29.59 in /  1001.9 hPa SSW 5.0 mph /  8 km/h 7.0 mph /  11.3 km/h 89 % 0.00 in /  0 mm
22:06 75.4 °F /  24.1 °C 71.9 °F /  22.2 °C 29.59 in /  1001.9 hPa South 3.1 mph /  5 km/h 5.8 mph /  9.3 km/h 89 % 0.00 in /  0 mm
22:11 75.5 °F /  24.2 °C 72.0 °F /  22.2 °C 29.59 in /  1001.9 hPa SW 2.0 mph /  3.2 km/h 5.8 mph /  9.3 km/h 89 % 0.00 in /  0 mm
22:16 75.6 °F /  24.2 °C 72.1 °F /  22.3 °C 29.59 in /  1001.9 hPa SW 1.5 mph /  2.4 km/h 3.5 mph /  5.6 km/h 89 % 0.00 in /  0 mm
22:21 75.7 °F /  24.3 °C 72.2 °F /  22.3 °C 29.59 in /  1001.9 hPa SW 2.9 mph /  4.7 km/h 10.4 mph /  16.7 km/h 89 % 0.00 in /  0 mm
22:26 75.8 °F /  24.3 °C 72.0 °F /  22.2 °C 29.59 in /  1001.9 hPa SW 1.5 mph /  2.4 km/h 4.6 mph /  7.4 km/h 88 % 0.00 in /  0 mm
22:31 75.9 °F /  24.4 °C 72.1 °F /  22.3 °C 29.60 in /  1002.3 hPa SSW 3.7 mph /  6 km/h 9.2 mph /  14.8 km/h 88 % 0.00 in /  0 mm
22:36 76.0 °F /  24.4 °C 72.2 °F /  22.3 °C 29.59 in /  1001.9 hPa SSE 3.7 mph /  6 km/h 6.9 mph /  11.1 km/h 88 % 0.00 in /  0 mm
22:41 76.2 °F /  24.6 °C 72.4 °F /  22.4 °C 29.59 in /  1001.9 hPa SSW 4.1 mph /  6.6 km/h 7.0 mph /  11.3 km/h 88 % 0.00 in /  0 mm
22:46 76.3 °F /  24.6 °C 72.5 °F /  22.5 °C 29.59 in /  1001.9 hPa SSW 1.7 mph /  2.7 km/h 5.8 mph /  9.3 km/h 88 % 0.00 in /  0 mm
22:51 76.5 °F /  24.7 °C 72.7 °F /  22.6 °C 29.58 in /  1001.6 hPa SSW 1.2 mph /  1.9 km/h 6.9 mph /  11.1 km/h 88 % 0.00 in /  0 mm
22:56 76.7 °F /  24.8 °C 72.9 °F /  22.7 °C 29.58 in /  1001.6 hPa WSW 1.7 mph /  2.7 km/h 4.0 mph /  6.4 km/h 88 % 0.00 in /  0 mm
23:01 76.8 °F /  24.9 °C 72.6 °F /  22.6 °C 29.58 in /  1001.6 hPa SSW 4.8 mph /  7.7 km/h 8.1 mph /  13 km/h 87 % 0.00 in /  0 mm
23:06 77.0 °F /  25 °C 72.8 °F /  22.7 °C 29.57 in /  1001.2 hPa SW 1.8 mph /  2.9 km/h 3.5 mph /  5.6 km/h 87 % 0.00 in /  0 mm
23:11 77.1 °F /  25.1 °C 72.9 °F /  22.7 °C 29.57 in /  1001.2 hPa SW 2.4 mph /  3.9 km/h 6.9 mph /  11.1 km/h 87 % 0.00 in /  0 mm
23:16 77.4 °F /  25.2 °C 73.2 °F /  22.9 °C 29.57 in /  1001.2 hPa SSW 5.8 mph /  9.3 km/h 13.8 mph /  22.2 km/h 87 % 0.00 in /  0 mm
23:21 77.5 °F /  25.3 °C 73.3 °F /  22.9 °C 29.57 in /  1001.2 hPa South 2.5 mph /  4 km/h 6.9 mph /  11.1 km/h 87 % 0.00 in /  0 mm
23:26 77.6 °F /  25.3 °C 73.1 °F /  22.8 °C 29.57 in /  1001.2 hPa WSW 2.5 mph /  4 km/h 8.1 mph /  13 km/h 86 % 0.00 in /  0 mm
23:32 77.7 °F /  25.4 °C 73.2 °F /  22.9 °C 29.57 in /  1001.2 hPa SSW 3.1 mph /  5 km/h 3.1 mph /  5 km/h 86 % 0.00 in /  0 mm
23:37 77.8 °F /  25.4 °C 73.3 °F /  22.9 °C 29.57 in /  1001.2 hPa WSW 1.9 mph /  3.1 km/h 6.0 mph /  9.7 km/h 86 % 0.00 in /  0 mm
23:42 77.8 °F /  25.4 °C 73.3 °F /  22.9 °C 29.57 in /  1001.2 hPa SSW 1.3 mph /  2.1 km/h 9.2 mph /  14.8 km/h 86 % 0.00 in /  0 mm
23:47 77.8 °F /  25.4 °C 72.9 °F /  22.7 °C 29.57 in /  1001.2 hPa SSW 3.5 mph /  5.6 km/h 4.6 mph /  7.4 km/h 85 % 0.00 in /  0 mm
23:52 77.8 °F /  25.4 °C 72.9 °F /  22.7 °C 29.57 in /  1001.2 hPa SSW 1.4 mph /  2.3 km/h 3.5 mph /  5.6 km/h 85 % 0.00 in /  0 mm
23:57 77.8 °F /  25.4 °C 72.9 °F /  22.7 °C 29.57 in /  1001.2 hPa SSW 0.8 mph /  1.3 km/h 10.4 mph /  16.7 km/h 85 % 0.00 in /  0 mm
Crab Meadow Weather
Compliments of Weather Underground - 3 mb

Script developed by  Jim McMurry - jmcmurry@mwt.net Adapted for the template by  Wim van der Kuil - Leuven-Template.eu

Astronomy: A year on Venus is 225 days.